Terug naar catalogus

STARLINK-34970

ActiefCommunicatieSSO
NORAD 65450·PAYLOAD·🇺🇸 United States

Gelanceerd Sep 3, 2025 vanaf Vandenberg Space Force Base

Loading…

Volgende Passages (komende 24 uur)

TLE

VersSource: CelesTrak SupGP

Epoch: Sep 14, 2026, 15:42 UTC

1 65450C 25194S   26257.65465278 -.00040053  00000+0 -12436-2 0  2574
2 65450  97.2840 107.3237 0001781  87.6719  75.8275 15.33451892    16

Volg STARLINK-34970 in realtime met AllMySat

Download on the App Store